Back to catalog

STARLINK-31310

AliveCommunicationsVLEO
NORAD 59092·PAYLOAD·🇺🇸 United States

Launched Feb 29, 2024 from Cape Canaveral Space Force Station

Loading…

Next Passes (next 24 hours)

TLE

FreshSource: CelesTrak SupGP

Epoch: Sep 14, 2026, 13:34 UTC

1 59092C 24041U   26257.56576389  .00002137  00000+0  77434-4 0  2575
2 59092  43.0032 324.4636 0001407 283.2571  40.5070 15.27565159    10

Track STARLINK-31310 in real time with AllMySat

Download on the App Store